TimeCDT,TemperatureF,Dew PointF,Humidity,Sea Level PressureIn,VisibilityMPH,Wind Direction,Wind SpeedMPH,Gust SpeedMPH,PrecipitationIn,Events,Conditions,WindDirDegrees,DateUTC
12:55 AM,81.0,71.1,72,29.99,10.0,SSW,9.2,-,N/A,,Mostly Cloudy,200,2013-07-09 05:55:00
1:55 AM,80.1,71.1,74,29.98,10.0,SSW,6.9,-,N/A,,Partly Cloudy,210,2013-07-09 06:55:00
2:55 AM,79.0,71.1,77,29.99,10.0,SSW,5.8,-,N/A,,Mostly Cloudy,200,2013-07-09 07:55:00
3:55 AM,78.1,70.0,76,29.99,10.0,SSW,6.9,-,N/A,,Partly Cloudy,200,2013-07-09 08:55:00
4:55 AM,75.9,69.1,79,29.98,10.0,SSW,5.8,-,N/A,,Mostly Cloudy,200,2013-07-09 09:55:00
5:55 AM,75.0,69.1,82,30.00,10.0,SSW,5.8,-,N/A,,Partly Cloudy,210,2013-07-09 10:55:00
6:55 AM,77.0,70.0,79,30.01,10.0,SW,4.6,-,N/A,,Partly Cloudy,220,2013-07-09 11:55:00
7:55 AM,77.0,70.0,79,30.01,10.0,SSW,6.9,-,N/A,,Scattered Clouds,210,2013-07-09 12:55:00
8:55 AM,81.0,72.0,74,30.00,10.0,SSW,9.2,-,N/A,,Clear,200,2013-07-09 13:55:00
9:55 AM,80.1,72.0,76,29.99,10.0,SW,8.1,-,N/A,,Clear,220,2013-07-09 14:55:00
10:55 AM,80.1,72.0,76,30.00,10.0,SSW,8.1,-,N/A,,Clear,200,2013-07-09 15:55:00
11:55 AM,84.9,73.9,69,29.99,10.0,SSW,5.8,-,N/A,,Clear,210,2013-07-09 16:55:00
12:55 PM,87.1,73.9,65,29.97,10.0,SSW,3.5,-,0.00,Rain,Light Rain,210,2013-07-09 17:55:00
1:55 PM,91.0,75.0,59,29.95,10.0,South,11.5,17.3,0.00,,Clear,190,2013-07-09 18:55:00
2:55 PM,93.0,73.9,54,29.93,10.0,SW,9.2,-,N/A,,Clear,220,2013-07-09 19:55:00
3:55 PM,93.0,73.0,52,29.91,10.0,South,13.8,19.6,N/A,,Clear,190,2013-07-09 20:55:00
4:55 PM,93.0,73.0,52,29.91,10.0,SSW,10.4,-,N/A,,Clear,210,2013-07-09 21:55:00
5:55 PM,91.9,72.0,52,29.89,10.0,SSW,12.7,-,N/A,,Clear,200,2013-07-09 22:55:00
6:55 PM,90.0,73.9,59,29.88,10.0,SSW,6.9,-,N/A,,Clear,210,2013-07-09 23:55:00
7:55 PM,87.1,75.0,67,29.88,10.0,South,3.5,-,N/A,,Clear,180,2013-07-10 00:55:00
8:55 PM,81.0,75.0,82,29.89,10.0,SSE,5.8,-,N/A,,Partly Cloudy,150,2013-07-10 01:55:00
9:55 PM,80.1,73.9,81,29.90,10.0,South,4.6,-,N/A,,Clear,190,2013-07-10 02:55:00
10:55 PM,80.1,72.0,76,29.90,10.0,South,4.6,-,N/A,,Mostly Cloudy,190,2013-07-10 03:55:00
11:55 PM,79.0,72.0,79,29.90,10.0,South,4.6,-,N/A,,Scattered Clouds,180,2013-07-10 04:55:00